TimeEDT,TemperatureF,Dew PointF,Humidity,Sea Level PressureIn,VisibilityMPH,Wind Direction,Wind SpeedMPH,Gust SpeedMPH,PrecipitationIn,Events,Conditions,WindDirDegrees,DateUTC
12:52 AM,51.1,39.0,63,30.25,10.0,ENE,6.9,-,N/A,,Mostly Cloudy,70,2013-05-05 04:52:00
1:52 AM,50.0,39.0,66,30.24,10.0,East,6.9,-,N/A,,Mostly Cloudy,100,2013-05-05 05:52:00
2:52 AM,48.0,39.9,74,30.23,10.0,ENE,8.1,-,N/A,,Scattered Clouds,60,2013-05-05 06:52:00
3:45 AM,48.2,39.2,71,30.23,10.0,East,8.1,-,N/A,,Mostly Cloudy,80,2013-05-05 07:45:00
3:52 AM,48.2,39.2,71,30.23,10.0,ENE,8.1,-,N/A,,Mostly Cloudy,70,2013-05-05 07:52:00
4:52 AM,48.0,39.0,71,30.23,10.0,ENE,10.4,-,N/A,,Mostly Cloudy,70,2013-05-05 08:52:00
5:29 AM,46.4,39.2,76,30.22,10.0,ENE,8.1,-,N/A,,Scattered Clouds,70,2013-05-05 09:29:00
5:52 AM,46.9,39.0,74,30.23,10.0,East,5.8,-,N/A,,Mostly Cloudy,80,2013-05-05 09:52:00
6:52 AM,48.0,39.0,71,30.24,10.0,NE,11.5,-,N/A,,Mostly Cloudy,40,2013-05-05 10:52:00
7:52 AM,50.0,39.0,66,30.25,10.0,ENE,17.3,24.2,N/A,,Mostly Cloudy,60,2013-05-05 11:52:00
8:52 AM,50.0,37.9,63,30.27,10.0,East,11.5,-,N/A,,Mostly Cloudy,90,2013-05-05 12:52:00
9:52 AM,51.1,37.9,61,30.26,10.0,NE,13.8,-,N/A,,Mostly Cloudy,50,2013-05-05 13:52:00
10:26 AM,51.8,37.4,58,30.26,10.0,East,9.2,-,N/A,,Mostly Cloudy,80,2013-05-05 14:26:00
10:52 AM,53.1,39.0,59,30.27,10.0,NE,11.5,-,N/A,,Mostly Cloudy,50,2013-05-05 14:52:00
11:52 AM,57.0,39.0,51,30.25,10.0,East,11.5,-,N/A,,Mostly Cloudy,100,2013-05-05 15:52:00
12:52 PM,57.9,39.0,49,30.23,10.0,East,8.1,16.1,N/A,,Scattered Clouds,90,2013-05-05 16:52:00
1:52 PM,60.1,39.9,47,30.22,10.0,Variable,3.5,-,N/A,,Scattered Clouds,0,2013-05-05 17:52:00
2:52 PM,61.0,41.0,48,30.21,10.0,ESE,9.2,-,N/A,,Scattered Clouds,110,2013-05-05 18:52:00
3:52 PM,63.0,41.0,45,30.19,10.0,ESE,9.2,17.3,N/A,,Scattered Clouds,110,2013-05-05 19:52:00
4:52 PM,63.0,43.0,48,30.17,10.0,ESE,8.1,-,N/A,,Scattered Clouds,110,2013-05-05 20:52:00
5:52 PM,62.1,42.1,48,30.17,10.0,East,9.2,-,N/A,,Mostly Cloudy,80,2013-05-05 21:52:00
6:52 PM,62.1,43.0,50,30.17,10.0,ESE,13.8,18.4,N/A,,Mostly Cloudy,110,2013-05-05 22:52:00
7:52 PM,60.1,44.1,55,30.19,10.0,ESE,11.5,-,N/A,,Mostly Cloudy,110,2013-05-05 23:52:00
8:52 PM,57.9,44.1,60,30.19,10.0,East,8.1,-,N/A,,Mostly Cloudy,80,2013-05-06 00:52:00
9:52 PM,57.0,46.0,67,30.19,10.0,East,9.2,-,N/A,,Haze,90,2013-05-06 01:52:00
10:52 PM,55.0,46.0,72,30.20,10.0,ESE,6.9,-,N/A,,Scattered Clouds,120,2013-05-06 02:52:00
11:52 PM,54.0,46.0,75,30.19,10.0,ESE,8.1,-,N/A,,Scattered Clouds,110,2013-05-06 03:52:00